"Time","Temp","Dewpoint","Humidity","Pressure","Direction","Speed","Gust","Precip","PrecipRate"
"00:04:57","50.5","43.2","76","29.62","184","0.4","2.4","0.00","0.00"
"00:09:59","50.5","43.2","76","29.62","184","0.1","1.2","0.00","0.00"
"00:14:57","50.5","43.2","76","29.62","184","0","0","0.00","0.00"
"00:19:58","50.4","43.1","76","29.61","183","0.2","2.4","0.00","0.00"
"00:24:59","50.4","43.2","76.2","29.61","183","0.2","2.3","0.00","0.00"
"00:29:59","50.5","43.2","76","29.61","183","0.1","2.4","0.00","0.00"
"00:34:57","50.5","43.3","76.3","29.60","183","0","1.2","0.00","0.00"
"00:39:58","50.5","43.4","76.6","29.60","183","0","1.2","0.00","0.00"
"00:44:58","50.3","43.2","76.4","29.60","183","0.4","2.4","0.00","0.00"
"00:49:59","50.2","43.3","77","29.60","184","1.2","3.6","0.00","0.00"
"00:54:59","50","43.3","77.5","29.60","185","1.6","3.6","0.00","0.00"
"00:59:56","50","43.4","78","29.60","186","0.4","3.5","0.00","0.00"
"01:04:57","50","43.4","78","29.60","186","0","0","0.00","0.00"
"01:09:56","50.1","43.5","78","29.60","186","0","0","0.00","0.00"
"01:14:56","50.1","43.5","78","29.60","192","0","0","0.00","0.00"
"01:19:57","50","43.4","78","29.59","192","0","0","0.00","0.00"
"01:24:57","49.8","43.2","78","29.59","192","0","0","0.00","0.00"
"01:29:58","49.6","43.1","78.2","29.59","192","0","0","0.00","0.00"
"01:34:56","49.4","43.2","78.8","29.58","192","0","0","0.00","0.00"
"01:39:56","49.2","43","79","29.58","192","0","0","0.00","0.00"
"01:44:57","49.1","42.9","79.1","29.59","192","0","0","0.00","0.00"
"01:49:58","49","43.1","80","29.59","192","0","0","0.00","0.00"
"01:54:59","48.9","43","80","29.59","192","0","0","0.00","0.00"
"01:59:59","48.8","43","80.2","29.59","192","0","0","0.00","0.00"
"02:04:56","48.9","43.3","81","29.58","198","0.9","4.8","0.00","0.00"
"02:09:59","49.1","43.5","81","29.58","201","2.1","6","0.00","0.00"
"02:14:59","49.4","43.8","81","29.61","286","4.9","18","0.00","0.00"
"02:19:59","49.5","43.6","79.9","29.61","337","10.3","23","0.00","0.00"
"02:24:59","49.3","44.1","81.9","29.61","325","10.1","20.7","0.00","0.00"
"02:29:59","48.4","44","84.6","29.65","327","12.5","24.2","0.00","0.00"
"02:34:56","47.7","43.8","86.5","29.65","335","7.4","19.6","0.00","0.00"
"02:39:58","47.1","43.5","87.3","29.65","349","6.9","19.2","0.01","0.01"
"02:44:59","46.6","43.3","88.2","29.65","337","3.8","10.8","0.01","0.01"
"02:49:57","46.3","43.2","89","29.65","62","2.7","6","0.01","0.01"
"02:54:58","46","43","89.2","29.65","81","2.4","4.8","0.01","0.01"
"02:59:59","45.8","42.9","89.8","29.65","94","2.5","4.6","0.01","0.01"
"03:04:59","45.6","42.8","90","29.62","92","0.5","2.4","0.01","0.01"
"03:09:58","45.4","42.6","90","29.62","92","0","1.2","0.01","0.01"
"03:14:59","45.4","42.6","90.2","29.63","92","0.1","2.4","0.01","0.01"
"03:19:57","45.2","42.7","91","29.63","92","1.4","3.6","0.01","0.01"
"03:24:57","45","42.7","91.8","29.63","91","0.6","3.6","0.01","0.01"
"03:29:58","44.8","42.6","92","29.63","29","2","4.8","0.01","0.01"
"03:34:56","44.6","42.4","92","29.63","355","2.8","4.8","0.01","0.01"
"03:39:57","44.4","42.4","92.5","29.63","344","2.1","4.8","0.01","0.01"
"03:44:57","44.2","42.3","93","29.63","350","3.1","6","0.01","0.00"
"03:49:58","44.1","42.2","93","29.63","343","2.8","7.2","0.01","0.00"
"03:54:58","44.1","42.2","93","29.63","333","3","5.8","0.01","0.00"
"03:59:58","44","42.1","93","29.63","289","0.7","4.8","0.01","0.00"
"04:04:58","44","42.1","93","29.63","327","1.8","6","0.01","0.00"
"04:09:57","44","42","92.6","29.63","290","0.3","5.8","0.01","0.00"
"04:14:56","44","41.8","92","29.64","290","0","1.2","0.01","0.00"
"04:19:58","43.9","41.7","92","29.64","290","0","1.2","0.01","0.00"
"04:24:59","43.7","41.5","92","29.64","290","0.1","1.2","0.01","0.00"
"04:29:56","43.6","41.4","92","29.65","290","0.4","2.4","0.01","0.00"
"04:34:58","43.5","41.3","92","29.65","290","0.6","2.4","0.01","0.00"
"04:39:56","43.4","41.3","92.5","29.65","290","0","1.2","0.01","0.00"
"04:44:57","43.1","40.9","92","29.65","290","0","0","0.01","0.00"
"04:49:59","42.9","41","92.9","29.65","290","0.3","2.4","0.01","0.00"
"04:54:59","42.8","40.9","93.2","29.65","290","0.8","2.4","0.01","0.00"
"04:59:56","42.7","41.1","94","29.65","290","0.1","1.2","0.01","0.00"
"05:04:58","42.7","41","93.9","29.65","290","0","1.2","0.01","0.00"
"05:09:57","42.4","40.5","93","29.65","290","0","0","0.01","0.00"
"05:14:58","42.2","40.3","93","29.65","290","0.1","1.2","0.01","0.00"
"05:19:59","42","40.1","93.2","29.65","290","0","0","0.01","0.00"
"05:24:59","42","40.4","94","29.65","290","0","0","0.01","0.00"
"05:29:59","41.9","40.3","94","29.65","290","0","0","0.01","0.00"
"05:34:57","41.7","40.1","94","29.65","290","0","0","0.01","0.00"
"05:39:57","41.5","39.9","94","29.65","290","0","0","0.01","0.00"
"05:44:58","41.2","39.6","94","29.65","290","0","0","0.01","0.00"
"05:49:59","41.1","39.5","94","29.65","290","0","0","0.01","0.00"
"05:54:56","40.9","39.3","94","29.65","290","0","0","0.01","0.00"
"05:59:56","40.7","39.3","94.5","29.65","290","0","0","0.01","0.00"
"06:04:57","40.6","39.1","94.2","29.65","290","0.4","1.2","0.01","0.00"
"06:09:57","40.4","38.8","94","29.65","290","0","0","0.01","0.00"
"06:14:58","40.2","38.7","94.5","29.65","290","0","0","0.01","0.00"
"06:19:59","39.9","38.3","94.1","29.64","290","0","0","0.01","0.00"
"06:24:56","39.8","38.5","95","29.64","290","0","0","0.01","0.00"
"06:29:57","39.5","38","94.4","29.66","290","0","0","0.01","0.00"
"06:34:58","39.1","37.5","94","29.66","290","0","0","0.01","0.00"
"06:39:56","38.8","37.2","94","29.66","290","0","0","0.01","0.00"
"06:44:56","38.6","37","94","29.66","290","0","0","0.01","0.00"
"06:49:58","38.4","36.9","94.5","29.65","290","0","0","0.01","0.00"
"06:54:59","38.1","36.6","94.1","29.65","290","0","0","0.01","0.00"
"06:59:57","37.9","36.5","94.4","29.66","289","0","0","0.01","0.00"
"07:04:59","37.8","36.5","95","29.66","289","0","0","0.01","0.00"
"07:09:58","37.7","36.4","95","29.66","289","0","0","0.01","0.00"
"07:14:56","37.6","36.3","95","29.66","289","0","0","0.01","0.00"
"07:19:58","37.4","36.1","95","29.66","289","0","0","0.01","0.00"
"07:24:59","37.4","36.2","95.2","29.66","289","0","0","0.01","0.00"
"07:29:56","37.7","36.6","95.8","29.67","289","0","0","0.01","0.00"
"07:34:58","37.8","36.8","96","29.67","289","0","0","0.01","0.00"
"07:39:59","37.9","36.9","96","29.67","289","0","0","0.01","0.00"
"07:44:56","38","37","96","29.67","289","0","0","0.01","0.00"
"07:49:57","37.9","36.6","95","29.67","289","0","0","0.01","0.00"
"07:54:59","37.8","36.7","95.6","29.67","289","0","0","0.01","0.00"
"07:59:57","38.1","37.1","96","29.68","289","0","1.2","0.01","0.00"
"08:04:58","38.6","37.6","96","29.68","289","0","0","0.01","0.00"
"08:09:58","38.8","37.8","96","29.68","289","0","0","0.02","0.00"
"08:14:59","38.8","37.8","96","29.68","289","0","0","0.02","0.01"
"08:19:56","39.7","38.8","96.5","29.68","289","0","0","0.02","0.01"
"08:24:57","40.9","40.1","97","29.68","289","0.4","2.4","0.02","0.01"
"08:29:59","41.4","40.6","96.8","29.68","332","2","4.8","0.02","0.01"
"08:34:58","42.4","41.5","96.9","29.68","335","1.4","3.6","0.02","0.01"
"08:39:56","43.4","42.3","96","29.68","250","1.7","3.6","0.02","0.01"
"08:44:57","43.8","42.6","95.6","29.68","250","0.6","2.4","0.02","0.01"
"08:49:56","44","42.7","95","29.68","250","0.6","2.4","0.02","0.01"
"08:54:58","44.5","43.2","95","29.68","250","0.7","2.4","0.02","0.01"
"08:59:57","45.6","43.9","93.6","29.68","248","1.4","3.6","0.02","0.01"
"09:04:59","46.2","43.8","91.5","29.68","247","1.1","2.4","0.02","0.01"
"09:09:58","46.6","44.1","90.8","29.68","247","0.9","2.4","0.02","0.01"
"09:14:59","46.7","43.9","90","29.69","247","0.6","2.4","0.02","0.00"
"09:19:56","46.8","43.9","89.8","29.69","247","0.5","2.3","0.02","0.00"
"09:24:57","47.1","44.4","90.4","29.69","207","2.3","6","0.02","0.00"
"09:29:58","47.6","44.7","89.8","29.69","197","2.8","4.8","0.02","0.00"
"09:34:59","48.4","45.2","88.7","29.69","186","2.6","7.2","0.02","0.00"
"09:39:56","49.5","45.8","87","29.69","210","4.1","8.4","0.02","0.00"
"09:44:57","49.9","45.8","85.9","29.69","201","3.1","7.2","0.02","0.00"
"09:49:58","50.5","46.3","85.3","29.68","210","2.9","7.2","0.02","0.00"
"09:54:59","50.9","46.2","84","29.68","183","2.9","7.2","0.02","0.00"
"09:59:59","51.3","46.1","82.5","29.68","209","4.7","8.4","0.02","0.00"
"10:04:56","51.4","45.9","81.6","29.68","190","3.7","6.9","0.02","0.00"
"10:09:59","52.1","46.2","80.2","29.68","185","3.2","7.2","0.02","0.00"
"10:14:56","52.2","46.3","80.1","29.68","204","3.4","6","0.02","0.00"
"10:19:57","53","47","80.2","29.68","202","3.7","7.2","0.02","0.00"
"10:24:57","53.4","46.7","78.1","29.68","184","2.8","6","0.02","0.00"
"10:29:58","53.6","46.4","76.5","29.68","180","3.1","6","0.02","0.00"
"10:34:56","54.1","46.4","75.3","29.67","173","3.2","7.2","0.02","0.00"
"10:39:56","54","46.7","76.2","29.67","183","3.8","8.4","0.02","0.00"
"10:44:57","54.8","47.1","75.4","29.67","189","2.5","6","0.02","0.00"
"10:49:57","55.1","47.2","74.6","29.67","170","3.6","8.4","0.02","0.00"
"10:54:58","55.4","47.5","74.6","29.67","181","3.4","6","0.02","0.00"
"10:59:59","56.2","48.1","74.3","29.67","200","4.2","10.8","0.02","0.00"
"11:04:56","55.8","47.4","73.5","29.66","215","4.7","8.1","0.02","0.00"
"11:09:59","56.6","48.1","73.1","29.66","202","3.6","7.2","0.02","0.00"
"11:14:59","56.9","47.5","70.7","29.66","207","4.1","12","0.02","0.00"
"11:19:56","57.5","47.9","70.4","29.66","185","4.7","11.5","0.02","0.00"
"11:24:57","57.6","47.2","68.2","29.66","184","3.9","10.8","0.02","0.00"
"11:29:57","58.3","47.8","68.1","29.66","193","4.5","10.8","0.02","0.00"
"11:34:59","58.8","47.9","67.4","29.65","185","4.6","13.2","0.02","0.00"
"11:39:59","58.8","47.6","66.2","29.65","194","5.3","12.7","0.02","0.00"
"11:44:56","59.1","48.2","67","29.65","153","4.5","12","0.02","0.00"
"11:49:57","58.9","47.5","65.8","29.64","207","6.6","13.2","0.02","0.00"
"11:54:58","59.1","47.4","65.2","29.64","188","5.6","12","0.02","0.00"
"11:59:58","59","47.3","65.2","29.64","205","5.5","12","0.02","0.00"
"12:04:59","59.3","47.2","64.3","29.63","184","3.4","7.2","0.02","0.00"
"12:09:58","60.3","47.8","63.4","29.63","202","6.1","12","0.02","0.00"
"12:14:58","60.5","48.3","64.2","29.63","162","2.4","6","0.02","0.00"
"12:19:56","60.6","47.6","62.3","29.61","190","5.4","15.6","0.02","0.00"
"12:24:57","59.2","46.4","62.5","29.61","200","5.8","12","0.02","0.00"
"12:29:57","58.4","46","63.4","29.61","219","7","13.2","0.02","0.00"
"12:34:59","58","45.9","63.8","29.61","216","5.6","12","0.02","0.00"
"12:39:56","58.2","46.5","65","29.61","218","4.5","10.8","0.02","0.00"
"12:44:56","59.3","47","63.8","29.61","212","5.2","10.4","0.02","0.00"
"12:49:57","59.6","47","63","29.61","200","6.7","15","0.02","0.00"
"12:54:58","62","49","62.4","29.61","229","6","13.2","0.02","0.00"
"12:59:59","61.3","47.6","60.9","29.62","234","5.2","12.7","0.02","0.00"
"13:04:56","61.4","47.4","60.2","29.62","239","5.1","10.8","0.02","0.00"
"13:09:58","61.1","46.7","59.1","29.62","219","6.7","13.2","0.02","0.00"
"13:14:59","60.4","45.2","57.4","29.62","226","4.2","7.2","0.02","0.00"
"13:19:57","60.9","43.8","53.6","29.62","284","3.5","13.2","0.02","0.00"
"13:24:57","61.6","40","45","29.62","262","5.1","15","0.02","0.00"
"13:29:58","61.5","37.7","41.2","29.62","292","5.3","11.5","0.02","0.00"
"13:34:59","61.4","37.8","41.6","29.61","285","6.1","23","0.02","0.00"
"13:39:59","61.1","37.6","41.5","29.61","282","4.9","15.6","0.02","0.00"
"13:44:59","61","37.7","42.1","29.61","289","8.2","19.2","0.02","0.00"
"13:49:59","60.9","38.1","42.8","29.61","310","6.4","17.3","0.02","0.00"
"13:54:59","62.4","39.6","43.1","29.61","329","6.7","18","0.02","0.00"
"13:59:58","62.9","40.4","43.7","29.61","311","6.8","18.4","0.02","0.00"
"14:04:59","62.6","40.3","43.9","29.61","321","6.1","12","0.02","0.00"
"14:09:58","62.6","41","45.1","29.61","309","6.4","18.4","0.02","0.00"
"14:14:58","62.6","40.5","44.3","29.62","328","5.6","16.1","0.02","0.00"
"14:19:58","62.4","40.3","44.2","29.62","310","7.9","18.4","0.02","0.00"
"14:24:57","62.1","39.4","43.2","29.62","259","7.2","17.3","0.02","0.00"
"14:29:57","61.4","39.2","43.8","29.64","307","6.9","20.7","0.02","0.00"
"14:34:59","61.3","39.1","43.9","29.64","316","7.3","21.6","0.02","0.00"
"14:39:58","61.2","39.4","44.5","29.64","330","7.2","21.9","0.02","0.00"
"14:44:58","61.3","40.2","45.6","29.64","308","6.4","18.4","0.02","0.00"
"14:49:58","61.1","39.9","45.7","29.64","323","7.5","18.4","0.02","0.00"
"14:54:58","60.5","39.7","46.1","29.64","324","9.4","27.6","0.02","0.00"
"14:59:57","60.2","39.9","47.1","29.64","348","8.9","27.6","0.02","0.00"
"15:04:59","60.3","40.6","48.3","29.64","303","5.6","10.8","0.02","0.00"
"15:09:58","60.7","41.1","48.5","29.64","313","6","24.2","0.02","0.00"
"15:14:58","60.9","41.5","48.7","29.64","336","8.3","23","0.02","0.00"
"15:19:59","60.3","40.9","48.8","29.64","327","10.1","20.7","0.02","0.00"
"15:24:59","60.8","41.9","49.8","29.64","319","5.9","17.3","0.02","0.00"
"15:29:59","61.2","41.7","48.7","29.65","307","7.1","20.4","0.02","0.00"
"15:34:56","61","41.1","48","29.65","305","6.2","21.6","0.02","0.00"
"15:39:56","60.7","40.6","47.3","29.65","304","8.9","21.9","0.02","0.00"
"15:44:56","61.4","40.5","46.2","29.66","310","8.2","17.3","0.02","0.00"
"15:49:56","61.9","40.3","45","29.66","300","8.4","21.9","0.02","0.00"
"15:54:56","61.7","40.3","45.3","29.66","282","5.7","19.6","0.02","0.00"
"15:59:56","62.7","40.8","44.6","29.66","269","4.7","12","0.02","0.00"
"16:04:57","62.2","39.7","43.6","29.65","284","6.2","20.7","0.02","0.00"
"16:09:59","62.1","39.5","43.4","29.65","273","6.1","15","0.02","0.00"
"16:14:56","62.1","38.9","42.3","29.66","280","7.3","19.2","0.02","0.00"
"16:19:56","62","39.6","43.7","29.66","320","8.5","20.7","0.02","0.00"
"16:24:56","61.9","39.5","43.6","29.66","295","8.5","18.4","0.02","0.00"
"16:29:56","62.3","37.8","40.2","29.66","284","8.9","21.9","0.02","0.00"
"16:34:57","62.4","39.6","43","29.66","342","9.5","18.4","0.02","0.00"
"16:39:57","62.1","39.5","43.2","29.66","307","7.7","18.4","0.02","0.00"
"16:44:57","61.7","38.5","42.2","29.67","311","6","18","0.02","0.00"
"16:49:57","60.8","37.9","42.6","29.67","300","8.3","20.7","0.02","0.00"
"16:54:57","60","37.8","43.7","29.67","294","6.2","16.8","0.02","0.00"
"16:59:57","59.8","37.4","43.3","29.68","304","7","17.3","0.02","0.00"
"17:04:58","59.7","37.2","43.2","29.68","294","6.6","16.1","0.02","0.00"
"17:09:57","59.6","37.3","43.3","29.68","286","5.8","16.1","0.02","0.00"
"17:14:57","59.5","36.8","42.6","29.70","298","6.9","19.6","0.02","0.00"
"17:19:58","59.4","36.1","41.7","29.70","310","5.5","15","0.02","0.00"
"17:24:58","59.2","36.1","42","29.70","305","3.7","15","0.02","0.00"
"17:29:59","59","35.4","41.2","29.71","295","4.5","15.6","0.02","0.00"
"17:34:56","58.8","35.2","41.2","29.71","303","5.4","16.1","0.02","0.00"
"17:39:57","58.4","34.7","40.8","29.71","305","5.9","17.3","0.02","0.00"
"17:44:58","58.3","34.5","40.6","29.72","319","5.4","10.8","0.02","0.00"
"17:49:59","58.2","34.3","40.5","29.72","308","5.7","19.6","0.02","0.00"
"17:54:59","58","34.1","40.5","29.72","310","5.8","12","0.02","0.00"
"17:59:56","57.7","34","40.8","29.73","321","4.5","10.8","0.02","0.00"
"18:04:57","57.4","33.8","40.8","29.73","303","6.5","16.1","0.02","0.00"
"18:09:59","57.3","33.8","41","29.73","324","5.9","19.6","0.02","0.00"
"18:14:56","57.1","33.7","41.2","29.76","284","3.8","10.8","0.02","0.00"
"18:19:57","56.8","33.6","41.4","29.76","305","6","16.1","0.02","0.00"
"18:24:57","56.6","33.5","41.5","29.76","308","4.2","16.1","0.02","0.00"
"18:29:58","56.5","33.6","41.7","29.77","292","3.8","11.5","0.02","0.00"
"18:34:56","56.3","33.3","41.6","29.77","302","4.9","12","0.02","0.00"
"18:39:56","56.2","33.3","41.9","29.77","297","3.6","10.8","0.02","0.00"
"18:44:57","55.9","33.1","42","29.78","286","2.8","7.2","0.02","0.00"
"18:49:58","55.6","33","42.3","29.78","333","3.5","8.4","0.02","0.00"
"18:54:58","55.4","32.9","42.5","29.78","269","1.5","4.8","0.02","0.00"
"18:59:59","54.9","32.8","43","29.79","296","2.5","4.8","0.02","0.00"
"19:04:57","54.7","32.6","43","29.79","295","1.4","6","0.02","0.00"
"19:09:56","54.6","32.5","43","29.79","11","0.7","4.8","0.02","0.00"
"19:14:57","54.3","32.5","43.5","29.80","347","2.1","4.8","0.02","0.00"
"19:19:58","54.1","32.2","43.2","29.80","345","1.2","3.6","0.02","0.00"
"19:24:59","54","32.4","43.6","29.80","345","1","3.5","0.02","0.00"
"19:29:56","53.8","32.4","44","29.80","345","0.3","2.4","0.02","0.00"
"19:34:58","53.2","32.9","46","29.80","346","0.2","1.2","0.02","0.00"
"19:39:59","52.3","32.6","47","29.80","346","0.3","2.4","0.02","0.00"
"19:44:56","51.5","32.1","47.5","29.82","346","0.4","2.4","0.02","0.00"
"19:49:57","50.9","32.4","49","29.82","31","1.5","3.6","0.02","0.00"
"19:54:58","50.3","32.4","50","29.82","32","0.5","2.4","0.02","0.00"
"19:59:59","49.7","32.2","50.8","29.84","32","0.8","2.4","0.02","0.00"
"20:04:57","49.4","32","51.1","29.84","34","0.4","2.4","0.02","0.00"
"20:09:56","49","32.5","52.9","29.84","35","0.9","3.6","0.02","0.00"
"20:14:57","48.5","32.1","53","29.84","52","2.1","3.6","0.02","0.00"
"20:19:58","48.3","32.1","53.3","29.84","62","1.8","3.6","0.02","0.00"
"20:24:58","48.5","31.9","52.6","29.84","62","0.7","2.4","0.02","0.00"
"20:29:57","48.3","32.4","53.9","29.84","62","0.1","2.3","0.02","0.00"
"20:34:56","48","32.8","55.5","29.84","62","0","0","0.02","0.00"
"20:39:58","47.1","32.9","57.6","29.84","63","0","0","0.02","0.00"
"20:44:58","46.5","32.4","57.7","29.86","62","0","0","0.02","0.00"
"20:49:59","46.2","32.2","57.8","29.86","62","0","0","0.02","0.00"
"20:54:56","46.2","32.3","58.3","29.86","336","0.8","4.8","0.02","0.00"
"20:59:56","45.7","32.1","58.8","29.87","336","0.7","3.5","0.02","0.00"
"21:04:58","45.4","31.8","58.7","29.87","336","0","0","0.02","0.00"
"21:09:57","45.6","31.6","58","29.87","334","0.3","2.4","0.02","0.00"
"21:14:59","45.5","31.7","58.3","29.87","329","0.9","2.4","0.02","0.00"
"21:19:56","45.2","31.7","59","29.87","334","1","4.8","0.02","0.00"
"21:24:56","45.2","31.6","58.7","29.87","354","0.6","4.6","0.02","0.00"
"21:29:57","45.1","31.2","57.9","29.87","357","1.4","4.8","0.02","0.00"
"21:34:59","45.3","31.1","57.2","29.87","339","0.7","4.8","0.02","0.00"
"21:39:56","45.3","30.9","56.9","29.87","294","0.9","3.5","0.02","0.00"
"21:44:56","45.5","30.6","55.8","29.90","294","1.9","3.6","0.02","0.00"
"21:49:57","46","30.5","54.5","29.90","321","1.6","7.2","0.02","0.00"
"21:54:58","46.5","30.1","52.8","29.90","359","2.6","4.8","0.02","0.00"
"21:59:59","47","29.8","51","29.90","360","1.7","3.6","0.02","0.00"
"22:04:56","47.2","30.4","51.8","29.90","360","0.1","2.3","0.02","0.00"
"22:09:56","46.9","29.3","50.3","29.90","360","0","0","0.02","0.00"
"22:14:57","46.6","28.8","49.9","29.91","360","0","0","0.02","0.00"
"22:19:58","46.4","28.6","49.7","29.91","360","0","0","0.02","0.00"
"22:24:59","46","28.4","49.8","29.91","360","0","0","0.02","0.00"
"22:29:59","45.8","28","49.7","29.92","360","0","0","0.02","0.00"
"22:34:57","45.5","27.6","49.3","29.92","360","0.3","2.4","0.02","0.00"
"22:39:57","45.4","27.8","49.9","29.92","337","1","4.8","0.02","0.00"
"22:44:58","45.2","28.4","51.6","29.92","337","0.1","1.2","0.02","0.00"
"22:49:56","44.7","28.8","53.3","29.92","343","1.6","6","0.02","0.00"
"22:54:57","44.5","27.1","50.2","29.92","349","2.8","6","0.02","0.00"
"22:59:58","45","26.4","47.8","29.92","356","3.2","6","0.02","0.00"
"23:04:57","45.4","26.5","47.4","29.92","345","2.2","8.4","0.02","0.00"
"23:09:57","45.3","27.7","50","29.92","5","0.8","3.6","0.02","0.00"
"23:14:58","44.6","28.5","53","29.92","5","0.2","2.3","0.02","0.00"
"23:19:56","44","27.8","52.7","29.92","5","0","0","0.02","0.00"
"23:24:57","43.3","27.7","54","29.92","5","0","0","0.02","0.00"
"23:29:58","42.7","27.9","55.6","29.93","5","0","0","0.02","0.00"
"23:34:58","42.2","27.4","55.6","29.93","5","0","0","0.02","0.00"
"23:39:56","41.8","27.5","56.4","29.93","5","0","0","0.02","0.00"
"23:44:57","41.5","27.2","56.5","29.94","5","0.1","2.4","0.02","0.00"
